Lapse_Rate
7.6 7.6 7.8 6.7 4.7 4.6 4.2 4.1 4.3 4.2 4.2 4.5 4.8 5.0 5.4 5.3 4.8 4.6 4.8 5.6 7.4 7.9 5.6 4.0 4.1 3.6 4.2 4.7 4.3 3.8 6.5 6.5 6.5 6.5 6.5 5.4 6.5 4.9 4.1 4.9 3.9 2.7 3.8 2.8 3.0
7.6 7.7 6.4 4.3 4.1 4.3 4.2 4.1 4.1 4.2 4.4 4.5 4.8 4.9 5.0 5.0 3.5 4.1 6.2 7.4 7.8 7.1 4.8 4.7 5.2 4.7 4.6 4.8 4.4 6.3 6.5 6.5 6.5 6.5 6.5 6.2 6.1 5.5 5.9 6.0 5.8 4.5 2.3 2.4 2.7
7.5 7.0 4.3 5.1 4.2 4.0 4.1 4.2 4.3 4.3 4.6 4.9 5.0 5.1 5.0 4.4 4.2 5.5 6.9 7.0 7.1 5.0 4.3 4.2 4.5 5.3 5.8 5.2 5.4 6.1 6.5 6.5 6.4 5.8 5.7 6.3 6.3 4.7 6.3 6.5 5.3 4.9 2.1 2.7 3.1
6.2 4.9 4.2 4.0 3.9 3.9 4.3 4.5 4.6 4.7 4.9 5.1 5.3 5.2 5.2 4.2 6.5 5.5 6.7 6.2 6.2 4.6 4.4 4.4 4.9 5.4 6.5 6.5 5.3 6.5 6.4 6.2 6.0 5.3 5.7 6.5 5.0 6.2 5.4 5.6 2.2 2.4 0.2 1.3 2.7
4.6 4.5 4.2 3.9 3.8 3.7 3.7 4.5 4.7 5.0 5.3 5.2 5.4 5.4 4.5 4.8 4.5 4.9 5.7 4.4 4.7 5.1 4.4 5.2 5.3 5.4 6.5 6.4 6.2 6.5 6.5 6.0 5.6 5.7 5.5 5.5 6.3 6.3 5.6 2.4 0.7 1.0 1.1 1.3 2.9
4.1 3.8 3.6 3.4 3.3 3.1 3.5 4.4 4.5 4.7 5.0 5.2 5.3 5.3 4.8 6.4 5.2 4.5 3.9 4.7 4.4 4.7 4.4 5.0 5.3 5.3 6.1 6.4 6.5 6.2 6.3 6.3 5.9 6.1 5.5 6.4 6.4 5.8 5.1 1.5 1.7 2.0 2.1 2.2 2.3
4.2 4.0 3.7 3.5 3.0 3.1 3.5 4.3 4.7 4.8 5.3 5.6 5.8 4.8 5.1 5.7 5.0 4.4 3.9 4.4 4.4 4.8 5.2 4.7 4.5 5.9 6.1 6.5 5.7 5.9 6.5 6.5 6.5 6.4 6.4 5.6 6.5 6.5 3.9 3.1 3.1 3.3 3.2 3.3 2.9
4.1 3.9 3.8 3.5 3.3 3.5 4.1 4.4 4.7 5.0 5.6 6.1 6.2 5.0 4.8 5.4 4.5 5.0 4.1 5.0 4.3 5.2 5.6 5.5 5.3 4.5 5.7 5.1 5.7 6.5 6.5 6.5 6.5 6.5 6.4 6.4 6.5 6.5 4.4 4.5 4.7 4.1 4.0 3.6 3.4
4.1 3.9 3.7 3.7 4.0 4.3 4.2 4.3 4.5 5.4 6.3 6.7 5.5 5.6 6.0 5.9 5.6 4.7 4.7 5.2 4.8 5.8 5.9 5.7 4.2 4.6 5.7 6.5 6.5 6.5 6.5 6.5 6.5 6.5 6.5 6.5 6.5 6.5 5.1 5.4 5.8 5.0 4.6 4.0 3.7
4.2 3.9 3.9 4.0 4.1 3.9 3.8 3.7 5.2 5.3 5.1 5.6 5.4 5.9 5.8 6.0 5.3 5.1 4.6 4.9 5.4 5.9 6.0 4.9 3.8 6.5 6.5 6.5 6.5 6.5 6.5 6.5 6.5 6.5 6.5 6.5 6.5 6.5 6.2 6.1 6.1 5.2 4.8 4.8 4.1
3.9 3.9 3.8 3.6 3.8 3.7 1.1 1.8 3.5 4.8 4.4 5.8 5.7 5.9 5.7 5.0 5.0 4.8 3.9 5.4 5.9 5.0 6.5 6.1 6.5 6.5 6.5 6.5 6.5 6.5 6.5 6.5 6.5 6.5 6.5 6.5 6.5 6.5 6.3 6.1 6.4 5.6 4.9 4.5 4.2
3.6 3.5 3.6 3.4 3.8 3.1 0.2 0.9 2.9 3.5 6.1 5.7 5.8 5.8 5.5 4.9 5.9 5.3 4.5 6.1 6.3 6.5 6.5 6.5 6.5 6.5 6.5 6.5 6.5 6.5 6.5 6.5 6.5 6.5 6.5 6.5 6.5 6.5 6.5 6.3 5.2 5.1 5.4 4.9 4.4
3.7 3.7 3.6 3.0 2.9 0.4 0.9 2.3 2.2 2.9 5.8 6.2 5.7 5.8 5.6 5.7 5.9 5.2 5.0 5.8 6.5 6.5 6.5 6.5 6.5 6.5 6.5 6.5 6.5 6.5 6.5 6.5 6.5 6.5 6.5 6.5 6.5 6.5 6.5 6.3 5.7 5.6 4.6 5.3 4.8
3.8 3.9 3.4 2.8 2.6 0.5 1.9 1.8 2.0 2.8 6.5 6.5 6.3 5.8 6.0 6.0 6.4 5.7 4.9 6.0 6.4 6.5 6.5 6.5 6.5 6.5 6.5 6.5 6.5 6.5 6.5 6.5 6.5 6.5 6.5 6.5 6.5 6.5 6.5 6.5 6.5 5.7 4.1 4.6 4.9
3.7 3.6 3.0 1.7 1.2 1.8 2.2 1.2 2.0 3.3 6.5 6.5 6.4 6.2 4.7 6.1 6.3 5.7 5.0 5.7 6.5 6.5 6.5 6.5 6.5 6.5 6.5 6.5 6.5 6.5 6.5 6.5 6.5 6.5 6.5 6.5 6.5 6.5 6.5 6.5 6.5 6.2 5.2 4.5 3.8
3.6 3.6 2.7 0.2 -0.2 1.1 0.7 1.3 3.0 6.5 6.5 6.5 6.2 6.4 6.4 5.8 6.1 5.0 5.6 4.4 6.1 6.5 6.5 6.5 6.5 6.5 6.5 6.5 6.5 6.5 6.5 6.5 6.5 6.5 6.5 6.5 6.5 6.5 6.5 6.5 6.5 6.3 6.4 5.5 3.4
2.9 3.1 1.5 0.4 1.6 -0.0 0.1 2.6 6.5 6.5 6.5 6.5 6.5 6.5 6.5 6.5 6.5 6.5 6.5 6.5 6.5 6.5 6.5 6.5 6.5 6.5 6.6 6.5 6.5 6.5 6.5 6.5 6.5 6.5 6.5 6.5 6.5 6.5 6.5 6.5 6.5 6.5 5.9 4.2 1.2
2.1 1.8 0.6 0.9 -0.7 -0.9 0.8 6.1 6.5 6.5 6.5 6.5 6.5 6.5 6.5 6.5 6.5 6.5 6.5 6.5 6.5 6.5 6.5 6.5 6.5 6.5 6.5 6.5 6.5 6.5 6.5 6.5 6.5 6.5 6.5 6.5 6.5 6.5 6.5 5.1 5.3 4.6 3.3 4.6 2.9
1.4 -1.2 0.3 0.1 -0.5 -1.5 2.4 6.5 6.5 6.5 6.5 6.5 6.5 6.5 6.5 6.5 6.5 6.5 6.5 6.5 6.5 6.5 6.5 6.5 6.5 6.5 6.5 6.5 6.5 6.5 6.5 6.5 6.5 6.5 6.5 6.5 6.5 6.5 6.5 6.5 6.5 6.4 5.7 3.7 4.0
-1.3 0.5 2.6 0.7 -0.9 -0.1 5.7 6.5 6.5 6.4 6.5 6.5 6.5 6.5 6.5 6.5 6.5 6.5 6.5 6.5 6.5 6.5 6.5 6.5 6.5 6.5 6.5 6.5 6.5 6.5 6.5 6.5 6.5 6.5 6.5 6.5 6.5 6.5 6.5 6.5 6.5 6.5 6.4 4.3 4.2
-1.4 2.3 4.3 0.2 -0.0 2.5 6.5 6.5 6.5 6.3 6.1 6.5 6.5 6.5 6.5 6.5 6.5 6.5 6.5 6.5 6.5 6.5 6.4 6.5 6.5 6.5 6.5 6.5 6.5 6.5 6.5 6.5 6.5 6.5 6.5 6.5 6.5 6.5 6.5 6.5 6.5 6.5 6.6 4.4 2.1
-0.5 6.3 5.1 -0.1 5.3 5.3 6.5 6.5 6.9 6.5 6.1 6.5 6.5 6.5 6.5 6.5 6.5 6.5 6.5 6.5 6.1 6.4 6.5 6.5 6.5 6.5 6.5 6.5 6.5 6.5 6.5 6.5 6.5 6.5 6.5 6.5 6.5 6.5 6.5 6.6 6.8 6.7 6.7 5.3 4.6
1.1 1.5 2.9 1.0 6.5 6.5 6.4 6.5 6.5 6.5 6.5 6.5 6.5 6.5 6.5 6.5 6.5 6.5 6.5 6.4 5.8 6.5 6.5 6.5 6.5 6.5 6.5 6.5 6.5 6.5 6.5 6.5 6.5 6.5 6.5 6.5 6.5 6.5 6.6 6.6 6.8 6.7 6.7 5.2 5.5
0.7 6.5 2.9 2.7 3.8 6.4 6.5 6.5 6.5 6.4 6.6 6.6 6.5 6.5 6.5 6.5 6.5 6.5 6.5 6.4 6.2 6.4 7.1 5.5 6.5 6.5 6.5 6.5 6.5 6.5 6.5 6.5 6.5 6.5 6.5 6.5 6.5 6.5 6.5 6.5 6.7 6.7 6.3 6.5 6.0
0.4 6.4 5.8 6.5 6.1 6.4 6.4 6.5 6.5 6.5 6.1 6.0 6.5 6.5 6.5 6.5 6.5 6.5 6.5 6.5 6.6 6.8 6.0 6.5 6.5 6.5 6.5 6.5 6.5 6.5 6.5 6.5 6.5 6.5 6.5 6.5 6.5 6.5 6.5 6.5 6.5 6.7 7.1 7.1 6.4
3.7 5.0 4.2 4.9 5.2 6.4 6.5 6.5 6.5 6.5 6.5 6.5 6.5 6.5 6.5 6.5 6.5 6.5 6.5 6.5 6.5 6.4 6.5 6.5 6.5 6.5 6.5 6.5 6.5 6.5 6.5 6.5 6.5 6.5 6.5 6.5 6.5 6.5 6.4 6.1 6.5 6.4 6.6 7.2 7.2
5.9 5.0 5.1 5.9 6.2 6.5 6.5 6.5 6.5 6.5 6.5 6.7 6.5 6.5 6.5 6.5 6.2 5.3 5.2 5.6 4.7 6.5 6.5 6.5 6.5 6.5 6.5 6.5 6.5 6.5 6.5 6.5 6.5 6.5 6.5 6.5 6.5 6.4 6.5 6.5 6.6 6.5 4.8 6.0 6.7
Wind_Speed
20 21 21 22 21 20 17 16 16 14 13 12 10 11 11 12 13 2 3 3 2 7 4 3 2 3 3 3 3 3 1 4 5 7 4 4 4 2 1 6 2 2 2 1 19
21 21 24 23 22 21 18 17 15 14 13 11 10 8 9 9 2 4 2 5 6 5 2 2 2 4 2 4 2 4 4 9 6 4 2 5 4 7 5 4 3 3 7 15 18
23 22 24 23 23 21 20 18 16 14 13 11 9 6 6 4 2 2 3 8 7 4 4 3 3 1 3 3 4 4 5 4 3 3 3 4 3 4 7 4 6 8 14 16 17
24 23 23 23 22 21 21 19 16 15 13 10 8 4 4 2 1 1 7 9 6 3 4 4 4 5 4 5 4 3 3 2 3 0 3 4 4 3 5 2 1 5 19 17 18
24 25 25 24 23 22 21 17 15 13 11 8 5 2 3 3 5 2 8 9 2 2 3 3 4 5 5 3 3 3 3 2 2 2 1 2 4 4 5 2 5 14 17 16 15
25 25 25 25 24 22 20 17 13 10 8 4 2 4 3 1 1 2 6 3 3 3 2 2 3 3 2 2 4 1 2 2 1 0 2 2 2 3 2 5 10 14 14 15 15
28 27 27 27 25 23 20 17 14 10 6 2 4 3 3 3 2 1 5 0 1 1 2 1 2 2 2 3 1 3 4 1 2 1 1 1 5 6 1 6 9 8 10 12 13
30 29 28 27 24 23 20 17 15 11 5 3 4 2 3 1 2 3 4 1 3 1 2 2 1 4 3 3 4 2 3 3 1 1 0 2 6 3 2 6 7 8 9 10 11
30 30 29 26 23 22 20 16 11 3 4 3 2 2 2 1 2 1 2 1 2 2 2 3 4 3 3 4 3 4 3 3 2 2 2 3 4 2 2 5 6 6 7 8 9
32 31 28 23 21 20 17 6 5 7 4 2 1 1 2 2 3 2 1 2 3 3 3 5 4 3 3 3 4 4 3 3 3 3 1 2 8 4 1 4 6 8 7 8 10
33 29 23 20 18 15 6 3 4 4 6 1 1 1 2 5 1 5 3 1 1 6 2 3 3 3 4 1 2 5 4 2 2 1 1 3 5 10 6 4 6 8 11 12 13
31 27 23 19 12 11 4 5 2 1 1 2 1 1 1 1 3 5 4 2 2 2 1 4 1 1 4 3 2 1 2 3 1 1 1 3 10 11 5 4 5 9 10 12 10
32 27 23 23 3 6 4 3 2 1 2 2 1 1 2 3 2 5 4 1 3 2 3 3 2 1 2 1 2 2 3 1 2 4 2 5 6 3 2 4 5 3 2 6 12
30 24 22 18 5 1 3 5 2 0 4 7 4 4 2 1 3 2 3 2 4 2 2 4 1 1 2 2 1 3 0 2 2 2 3 3 4 3 4 2 8 8 5 4 6
24 19 17 13 1 3 5 7 2 2 4 8 3 2 7 4 2 6 2 3 3 2 2 1 2 3 2 2 2 2 2 3 2 3 2 2 1 4 4 7 12 7 7 7 6
18 12 14 5 3 1 8 4 2 4 3 4 4 6 5 6 5 7 4 7 2 2 4 3 2 4 1 2 3 4 3 4 3 2 1 1 2 2 4 6 11 9 12 11 9
14 4 6 2 3 10 3 2 4 5 5 8 5 6 2 6 6 8 5 7 4 5 4 3 3 3 5 1 2 4 2 2 3 2 3 1 2 3 5 6 5 11 13 11 7
9 5 4 5 7 3 2 4 8 4 4 3 5 6 5 9 4 8 4 5 7 5 3 3 4 5 7 3 1 2 3 2 4 1 2 2 4 2 4 7 6 5 6 7 6
6 3 3 6 6 1 4 7 1 3 5 7 8 4 4 4 3 4 4 4 3 7 3 4 2 1 1 1 2 2 2 2 4 1 0 1 4 3 13 12 12 13 12 9 6
2 2 5 19 5 3 6 5 3 4 6 3 4 7 7 7 7 5 5 3 5 6 2 1 3 1 2 1 5 1 3 0 0 2 3 3 1 5 12 12 14 16 14 11 7
3 4 8 21 2 7 4 3 4 4 6 6 5 4 3 4 3 5 6 1 6 6 6 4 3 4 1 2 1 2 0 2 1 2 2 1 2 3 8 8 11 11 12 11 9
3 4 9 7 5 3 3 4 7 6 6 6 3 3 3 6 5 3 5 4 8 5 4 1 3 1 5 4 4 3 1 2 2 1 1 2 3 5 5 7 10 11 11 12 8
3 1 5 5 4 3 4 4 5 7 6 6 6 5 5 5 3 4 4 2 7 7 1 3 2 3 7 2 2 4 2 2 3 2 2 1 4 3 6 10 10 10 11 11 11
3 4 4 5 2 3 3 4 4 4 4 4 5 5 5 6 4 4 6 2 6 8 9 2 2 2 1 4 2 3 7 6 2 1 2 1 3 9 12 12 12 14 13 9 8
4 2 1 4 5 5 3 3 4 5 5 8 4 6 2 5 5 4 3 5 2 12 6 4 3 4 3 1 12 9 8 8 4 4 1 2 3 4 7 9 9 9 11 11 8
3 3 3 1 2 4 6 4 4 3 3 4 2 3 3 3 5 4 2 4 3 7 6 4 0 2 6 12 12 12 10 8 5 3 2 3 0 2 6 6 9 10 11 10 11
1 2 1 4 2 3 2 3 3 3 1 2 2 1 1 2 4 7 6 1 3 1 2 3 2 2 2 2 3 3 4 2 3 2 3 2 4 4 8 10 11 14 8 7 9
Wind_Direction
356 353 351 354 349 345 344 339 334 332 327 321 321 319 331 332 335 329 231 215 283 308 33 333 106 139 102 136 130 147 153 228 214 160 199 178 155 49 99 119 92 42 5 309 137
351 353 351 351 345 342 341 336 330 328 322 312 311 316 333 338 348 278 240 310 328 358 67 85 145 143 143 164 183 163 189 213 198 201 207 178 188 162 151 144 183 121 72 130 140
350 351 348 345 343 340 338 335 329 325 320 311 302 318 330 15 21 250 308 337 327 50 158 130 111 157 199 138 195 169 224 190 220 165 157 167 189 161 144 213 201 189 157 154 153
348 347 343 340 340 338 335 335 328 325 322 315 299 306 349 87 202 245 334 338 344 107 117 123 122 152 198 198 187 187 205 173 150 309 156 173 121 192 212 144 325 158 156 158 167
347 344 342 339 337 334 331 331 324 324 325 321 295 276 91 76 253 340 338 337 18 90 98 155 150 151 186 204 131 213 178 137 114 118 123 167 191 214 222 84 90 129 149 163 166
345 342 338 334 332 329 325 323 316 314 311 317 191 132 116 118 145 4 341 351 30 57 90 121 174 162 152 150 173 99 115 148 329 232 69 199 225 170 146 127 125 147 160 163 165
342 339 334 331 327 324 322 317 309 305 294 252 171 135 125 197 138 342 20 279 16 41 95 107 152 128 118 119 128 118 129 190 223 234 267 3 250 236 96 144 147 159 158 157 163
342 339 334 332 327 324 323 317 307 295 254 201 153 118 207 173 161 60 336 104 2 73 85 130 138 103 81 136 37 87 51 163 39 181 278 190 250 125 164 158 173 166 163 162 164
342 338 335 333 332 329 324 320 315 228 188 163 102 145 301 119 70 313 31 60 296 97 66 85 69 83 51 103 30 22 222 194 258 24 320 199 258 81 145 181 179 186 180 171 158
343 342 341 339 334 333 330 341 62 87 65 62 60 49 14 346 318 344 21 47 102 112 71 53 54 75 41 90 220 192 202 233 240 348 16 277 266 279 137 183 197 188 186 184 180
344 343 342 340 338 344 5 42 28 16 48 39 69 25 344 308 285 10 359 17 110 58 84 18 82 204 224 181 141 120 121 172 244 75 239 252 280 278 272 236 231 197 194 194 191
342 340 343 344 349 11 58 69 61 206 45 13 358 26 3 351 20 357 358 77 56 95 68 30 168 87 109 128 132 112 97 247 228 35 81 346 286 255 225 234 226 207 197 198 184
343 342 344 343 57 41 66 61 323 221 102 19 35 44 316 20 71 327 19 58 76 99 57 160 132 198 156 116 171 132 162 238 240 336 75 327 284 357 21 24 350 11 233 189 195
345 346 350 347 45 307 51 326 330 237 86 338 339 2 353 56 51 353 9 52 38 93 87 81 335 151 112 104 349 208 258 100 59 66 244 19 284 340 344 359 37 14 16 292 201
346 347 0 36 178 46 312 326 314 49 48 328 352 321 326 55 300 359 357 18 67 92 110 29 34 25 77 42 336 142 83 93 93 99 55 326 96 290 8 345 345 330 333 319 271
348 359 6 27 44 358 327 335 43 46 272 358 7 356 15 16 21 330 28 37 81 103 55 87 77 48 23 46 37 141 87 58 66 89 17 312 164 359 10 300 313 316 319 313 296
346 41 46 24 306 329 337 47 28 82 342 349 339 350 356 343 18 16 50 32 37 27 16 60 38 13 20 92 58 59 62 318 350 21 218 295 118 239 293 306 277 304 316 319 312
2 58 37 73 308 326 75 58 65 356 353 350 334 324 72 10 20 5 70 33 18 22 58 37 337 10 335 77 130 57 139 178 243 228 307 81 220 112 248 291 293 304 301 356 15
341 357 15 342 341 53 72 52 79 354 313 336 319 31 29 2 18 42 57 18 40 14 97 18 311 189 348 63 73 302 36 245 107 90 291 287 299 317 356 5 3 5 12 7 19
41 44 0 341 348 56 65 102 88 33 323 345 7 30 25 354 19 36 19 357 353 2 170 148 350 265 148 54 30 82 139 104 31 255 255 317 326 349 351 344 348 357 360 357 7
42 47 325 346 44 46 76 78 48 33 21 28 17 29 23 355 347 20 0 29 350 335 327 160 122 291 35 18 202 42 63 80 312 234 241 194 94 334 323 338 349 351 357 355 355
22 41 327 350 47 34 43 21 20 356 8 29 84 19 9 22 7 100 27 32 340 313 318 285 136 264 239 246 196 152 31 276 247 205 266 293 122 318 326 340 354 353 356 357 1
60 322 333 32 65 19 19 36 54 21 7 19 17 14 19 25 94 33 13 71 2 2 336 325 3 9 350 344 190 75 308 282 285 238 217 268 127 349 14 9 3 359 355 347 352
66 18 356 38 39 81 44 14 20 29 58 34 21 38 37 21 11 358 358 349 340 343 12 23 75 123 228 207 264 43 23 354 282 328 340 45 101 3 8 356 349 346 344 345 341
28 61 7 359 9 41 60 9 0 13 5 24 51 28 69 32 3 15 341 322 309 3 11 70 90 14 302 325 87 76 39 16 55 344 292 0 103 7 347 329 327 327 342 348 354
58 25 356 351 5 39 7 12 26 5 42 346 72 340 21 120 169 244 41 28 13 330 18 357 123 65 38 85 87 66 34 19 19 0 12 1 201 273 312 312 339 338 345 360 18
55 45 69 329 15 73 22 286 4 341 308 114 308 68 26 251 246 238 216 194 218 289 322 51 89 62 213 309 259 30 321 329 272 248 236 261 228 304 331 336 331 319 310 303 346